Location: Omaha
(41.2590°N, 95.9380°W)
Time: 12:00:37
(UTC-05:00)

Tiangong 1 - Pass Details

Date: 14 October 2017
Orbit: 294 x 321 km, 42.8° (Epoch: 17 October)

Event Time Altitude Azimuth Distance (km) Brightness Sun altitude
Rises 20:35:49 0° 280° (W) 2,037 6.3 -21.8°
Reaches altitude 10° 20:38:01 10° 265° (W) 1,200 4.6 -22.2°
Enters shadow 20:39:22 20° 239° (WSW) 801 3.2 -22.4°
